Weather in Kukelevo

Russia / Khabarovsk Krai     47°45′33″N   134°46′19″E
temp.,
°C
wind,
m/s
gust,
m/s
humid.,
%
clouds,
%
prec.,
mm/h
press.,
hPa
HPBL,
m
28 september, tue
tue2801:00+16ssw51294100 1.1 1013528
04:00+16sw61293100 1.9 1013635
07:00+14sw379831 0.1 1014177
10:00+19wsw347727 0.1 1015749
13:00+22sw44530 0.1 10141602
16:00+22ssw44480 0.1 10131563
19:00+16s33748 0.0 101332
22:00+14sse33895 0.0 101241
29 september, wed
wed2901:00+13sse34920 0.0 101148
04:00+13se36940 0.0 101198
07:00+12sse35940 0.0 101079
10:00+19s38660 0.0 1009462
13:00+23ssw710470 0.0 10081467
16:00+23ssw795120 0.0 10061635
19:00+18ssw36755 0.0 1006107
22:00+15s378947 0.1 1005110
30 september, thu
thu3001:00+14sw4119595 0.6 1005346
04:00+12wsw5988100 1.5 1005350
07:00+11wsw510895 0.3 1007414
10:00+12w58660 0.3 1008650
13:00+16w68350 0.0 10081563
16:00+16w67315 0.0 10071698
19:00+10wsw35440 0.0 100967
22:00+10wsw234783 0.0 101060
1 october, fri
fri101:00+7ssw34587 0.0 101055
04:00+6wsw226112 0.0 101015
07:00+6ssw22675 0.0 101123
10:00+12wsw45485 0.0 1012575
13:00+15wsw573918 0.0 10111941
16:00+16wsw583511 0.0 10102283
19:00+10sw335266 0.0 101129
22:00+8sw33575 0.0 101223
2 october, sat
sat201:00+7sw226374 0.0 101319
04:00+6sw22737 0.0 101317
07:00+5sw22789 0.0 101415
10:00+11sw45521 0.0 1015591
13:00+15w34395 0.0 10141769
16:00+15w3434100 0.0 10132144
19:00+10w2248100 0.0 101415
22:00+8nnw1153100 0.0 101510